Location: Watson Lake
(60.1170°N, 128.8000°W)
Time: 00:21:31
(UTC-07:00)

Daily predictions for brighter satellites

Satellite Brightness Start Highest point End
(mag) Time Altitude Azimuth Time Altitude Azimuth Time Altitude Azimuth
SAR-Lupe-2 4.1 00:03:49 39° SSW 00:04:42 51° WSW 00:08:14 10° NNW
Cosmos-2242 3.7 00:04:20 34° ESE 00:05:01 36° E 00:08:59 10° NNE
Cosmos 921 Rocket 3.3 00:01:42 10° NNW 00:06:07 61° WSW 00:07:31 39° S
Cosmos 1689 Rocket 3.6 00:06:11 28° ENE 00:06:35 29° ENE 00:09:25 10° N
Cosmos 1513 Rocket 4.5 00:03:27 28° S 00:06:52 75° E 00:13:14 10° NNE
IKONOS-2 4.4 00:06:32 44° SSE 00:07:50 88° ENE 00:12:07 10° NNW
Nadezhda 4 Rocket 4.0 00:01:37 10° NNW 00:07:58 83° W 00:11:18 30° S
Cosmos 1408 Rocket 3.9 00:07:59 10° NNW 00:12:25 60° W 00:14:03 36° SSW
Cosmos 1470 4.4 00:13:08 22° E 00:13:19 22° E 00:16:24 10° NE
Cosmos 2322 Rocket 2.2 00:07:44 10° SW 00:13:23 82° NW 00:19:05 10° NE
Cosmos 1743 Rocket 3.5 00:13:02 10° NNW 00:17:32 89° ENE 00:18:51 46° SSE
Cosmos 2297 3.8 00:13:22 10° NW 00:19:09 74° NE 00:22:06 30° SE
Cosmos 1805 3.7 00:19:11 43° ESE 00:19:29 44° E 00:23:15 10° NNE
ALOS 2 2.7 00:18:21 42° SE 00:19:41 66° ENE 00:24:04 10° NNW
Cosmos 2322 3.8 00:17:56 32° S 00:20:27 59° ESE 00:26:04 10° NE
Cosmos 2237 Rocket 3.8 00:21:29 18° ESE 00:22:00 18° E 00:25:48 10° ENE
Cosmos 1076 Rocket 4.3 00:20:04 10° NNW 00:24:07 43° W 00:25:34 31° SW
Cosmos 2151 3.4 00:22:38 10° N 00:26:50 51° ENE 00:27:53 40° ESE
Cosmos 2333 Rocket 3.5 00:27:34 22° ESE 00:28:12 23° ESE 00:32:35 10° NE
Cosmos 304 Rocket 3.9 00:27:47 44° SSE 00:28:45 52° ESE 00:33:26 10° NE
Meteor 2-12 Rocket 4.4 00:26:44 34° S 00:29:35 76° E 00:35:46 10° NNE
Cosmos 1953 2.4 00:29:12 53° SE 00:29:44 58° E 00:33:44 10° NNE
Cosmos 1452 Rocket 3.8 00:25:00 10° NNW 00:30:16 62° NE 00:32:45 31° ESE
SL-14 R/B 4.3 00:28:34 10° N 00:32:10 35° ENE 00:33:00 31° E
Cosmos 2026 Rocket 4.0 00:27:48 10° NNW 00:34:01 76° ENE 00:36:40 36° SSE
DMSP B5D2-2 4.4 00:31:48 10° NNE 00:37:03 66° WNW 00:40:21 23° SW
Lacrosse 4 Rocket 1.7 00:37:11 48° SE 00:37:22 48° SE 00:41:44 10° NE
Cosmos 1674 2.5 00:33:48 10° NNW 00:37:36 87° W 00:38:03 68° S
SL-24 DEB 4.2 00:33:51 10° N 00:38:38 84° W 00:40:11 43° SSW
Cosmos 1766 3.4 00:39:00 46° SW 00:39:59 67° WNW 00:43:55 10° N
Cosmos 371 Rocket 3.7 00:36:54 17° SW 00:40:37 62° NW 00:45:28 10° NNE
NOSS 3-3 (A) 4.3 00:35:02 10° WNW 00:42:04 85° NNE 00:49:30 11° ESE
NOSS 3-3 (C) 4.3 00:35:08 10° WNW 00:42:09 84° NNE 00:49:39 11° ESE
COSMOS 2428 2.9 00:42:48 40° SSE 00:44:20 50° ESE 00:49:51 10° NE
CZ-4B R/B 1.5 00:45:26 68° ESE 00:45:44 75° ENE 00:49:26 10° NNW
Cosmos 1680 Rocket 3.8 00:44:35 42° SSE 00:45:49 51° ESE 00:50:59 10° NE
Cosmos 2278 Rocket 2.4 00:42:10 10° NW 00:47:43 56° WSW 00:49:31 39° S
CZ-2C R/B 3.5 00:46:15 31° ESE 00:48:18 50° ENE 00:53:18 10° NNW
Cosmos 1758 3.2 00:49:25 64° S 00:50:00 84° ESE 00:54:05 10° NNE
Cosmos 2195 Rocket 4.4 00:44:27 10° NNW 00:50:39 83° W 00:53:15 38° S
Cosmos 1328 3.7 00:50:39 10° NNW 00:54:40 81° ENE 00:55:11 65° SE
ATLAS CENTAUR R/B 1.8 00:50:11 10° WNW 00:54:56 70° NNE 00:57:17 27° ESE
Cosmos 1428 Rocket 4.5 00:50:49 10° NNW 00:56:58 75° ENE 00:59:34 37° SSE
CZ-4C R/B 3.1 00:57:54 57° W 00:57:54 57° W 01:00:56 10° NNW
Terra 4.0 00:55:55 11° WSW 00:58:35 17° W 01:01:42 10° NW
Cosmos 1697 Rocket 4.5 00:54:57 10° W 01:00:02 33° NNW 01:05:07 10° NE
Cosmos 1346 3.8 00:57:05 10° NNW 00:59:34 48° WNW 00:59:34 48° WNW
H-2A R/B 4.3 00:58:46 10° WSW 01:01:33 15° W 01:04:21 10° NW
Cosmos 2237 4.2 01:00:55 40° S 01:02:57 67° ESE 01:08:39 10° NE
CZ-2C R/B 3.7 00:58:12 10° NNE 01:03:14 34° E 01:04:51 29° SE
Cosmos 1844 Rocket 3.9 01:01:21 10° NW 01:05:57 27° WSW 01:07:28 24° SW
Cosmos 1805 Rocket 3.7 01:02:01 10° N 01:06:28 67° ENE 01:07:29 49° SE
Cosmos 2142 Rocket 4.5 01:07:10 38° S 01:09:42 76° E 01:16:03 10° NNE
SL-16 R/B 3.0 01:06:16 10° WSW 01:11:48 50° NW 01:17:21 10° NE
Cosmos 1818 4.0 01:07:27 10° WNW 01:12:38 44° SW 01:13:32 40° SSW
Cosmos 2056 Rocket 4.0 01:07:35 10° NW 01:12:39 47° WSW 01:13:58 39° SSW
Cosmos 1538 Rocket 4.4 01:09:03 21° SW 01:12:41 62° NW 01:18:03 10° NNE
Landsat 5 3.2 01:12:30 65° SW 01:12:48 69° WSW 01:16:42 10° NNW
ATLAS 3B R/B 3.6 01:12:52 31° SSE 01:14:39 35° ESE 01:21:05 10° ENE
COSMOS 2455 3.5 01:13:42 34° SE 01:14:41 36° ESE 01:20:08 10° NE
Cosmos 1733 3.3 01:15:54 58° ESE 01:16:04 58° E 01:19:56 10° NNE
Cosmos 1900 4.2 01:15:43 42° SW 01:17:25 76° SE 01:22:25 10° NE
Cosmos 923 Rocket 3.9 01:15:40 40° SSW 01:17:38 90° ESE 01:22:56 10° NNE
Cosmos 1655 Rocket 4.1 01:11:50 10° NNW 01:18:11 69° W 01:20:43 38° SSW
Cosmos 1420 Rocket 4.0 01:15:37 10° NNW 01:20:53 79° NE 01:22:54 38° SE
NOSS 2-1 (D) 4.4 01:18:09 10° WNW 01:23:20 76° NNE 01:30:19 10° ESE
Cosmos 2360 Rocket 2.4 01:19:34 20° SW 01:23:34 70° NW 01:29:17 10° NE
Cosmos 1980 Rocket 3.9 01:19:00 10° W 01:24:09 33° NNW 01:29:20 10° NE
NOSS 2-1 (C) 4.4 01:19:12 10° WNW 01:24:22 76° NNE 01:31:20 10° ESE
H-2A R/B 2.6 01:20:35 10° NNE 01:24:40 55° ESE 01:24:59 53° ESE
Cosmos 773 Rocket 4.2 01:23:00 30° SW 01:25:40 71° NW 01:31:00 10° NNE
Cosmos 1842 Rocket 3.4 01:25:05 59° SSW 01:25:54 89° WNW 01:30:16 10° NNE
Timation 1 Rocket 4.3 01:19:57 10° NW 01:25:55 69° SW 01:28:02 41° SSE
Cosmos 2369 Rocket 2.8 01:23:22 10° NW 01:28:53 54° NE 01:33:56 12° ESE
GEOS 3 Rocket 3.5 01:25:55 10° ENE 01:31:05 82° SE 01:33:46 29° SW
Cosmos 1626 2.9 01:28:50 10° N 01:32:29 44° ENE 01:33:06 40° E
Cosmos 1544 3.3 01:32:10 55° W 01:32:30 59° WNW 01:36:12 10° N
Cosmos 2058 2.9 01:29:27 10° NNW 01:33:37 66° W 01:34:04 60° SW
Cosmos 1703 3.3 01:32:00 10° NNW 01:35:59 72° ENE 01:36:28 62° SE
Cosmos 1689 Rocket 3.6 01:39:12 31° WNW 01:39:12 31° WNW 01:41:41 10° NNW
Cosmos 1943 Rocket 3.4 01:34:29 10° NW 01:39:53 42° NNE 01:45:16 10° E
Cosmos 1666 Rocket 3.4 01:35:52 10° NNW 01:40:13 87° W 01:40:57 61° S
NOSS 2-1 (E) 4.5 01:35:16 10° WNW 01:40:37 80° NNE 01:47:53 10° ESE
Cosmos 1633 Rocket 3.0 01:37:40 10° NNW 01:42:09 85° ENE 01:43:02 57° SSE
Helios 1A Rocket 3.3 01:38:14 10° NNE 01:42:11 46° E 01:42:33 45° ESE
Cosmos 2219 Rocket 2.2 01:40:39 44° S 01:42:21 67° ESE 01:47:58 10° NE
Cosmos-2242 4.0 01:41:12 31° WSW 01:42:36 41° WNW 01:46:43 10° N
Cosmos 2228 Rocket 4.3 01:43:03 28° ESE 01:44:11 31° E 01:48:12 10° NNE
Cosmos 1634 Rocket 4.1 01:41:25 34° SSW 01:44:20 71° WNW 01:50:40 10° NNE
Cosmos 2221 2.7 01:45:08 53° SE 01:45:51 63° E 01:50:13 10° NNE
Sich 1 3.0 01:44:12 10° NNW 01:48:39 82° W 01:49:29 59° S
Cosmos 1470 2.9 01:48:32 55° WSW 01:49:06 63° WNW 01:53:05 10° N
Cosmos 1933 Rocket 3.9 01:49:26 10° N 01:53:49 61° ENE 01:55:04 43° SE
ALOS 2 4.0 01:55:45 24° WSW 01:56:25 25° W 02:00:05 10° NW
Cosmos 2279 Rocket 3.9 01:55:27 38° SSW 01:58:00 84° WNW 02:04:16 10° NNE
Cosmos 2322 Rocket 3.7 01:53:00 10° W 01:58:11 36° NNW 02:03:23 10° NE
Cosmos 1470 Rocket 3.7 01:55:04 10° NNW 01:59:31 71° ENE 02:00:39 48° SE
Cosmos 1331 Rocket 4.5 01:54:37 10° NNW 01:59:51 59° NE 02:03:34 19° SE
Exosat Rocket 3.7 01:56:42 10° NW 02:01:39 61° WSW 02:03:13 43° S
Cosmos 1437 Rocket 3.3 02:01:26 46° SE 02:01:58 49° E 02:06:00 10° NNE
Cosmos 2297 4.4 01:57:53 10° NW 02:03:01 35° WSW 02:04:00 33° SW
SL-16 R/B 3.0 02:01:43 33° SE 02:03:11 38° ESE 02:08:25 10° NE
Cosmos 2151 4.2 02:00:17 10° NNW 02:03:58 29° W 02:04:29 28° WSW
Cosmos 2322 4.5 01:59:50 13° WSW 02:04:51 50° NW 02:10:25 10° NE
Cosmos 2237 Rocket 2.2 02:03:18 43° S 02:05:08 66° ESE 02:10:48 10° NE
Cosmos 1953 4.1 02:04:57 20° W 02:06:31 26° WNW 02:09:58 10° N
Cosmos 2333 4.3 02:05:02 30° SW 02:08:02 75° NW 02:13:52 10° NE
SeaSat 1 4.4 02:03:51 10° E 02:08:07 30° NNE 02:12:23 10° NW
SL-14 R/B 4.1 02:04:49 10° NNW 02:08:24 36° W 02:08:28 36° W
Cosmos 2266 Rocket 4.1 02:02:57 10° NNW 02:09:19 71° W 02:11:57 37° S
Cosmos 1980 3.6 02:08:46 42° SSW 02:10:43 74° SE 02:16:24 10° NE
Cosmos 2333 Rocket 2.2 02:09:34 40° SSW 02:11:43 78° SE 02:17:32 10° NE
Cosmos 1452 Rocket 4.2 02:07:24 10° NW 02:12:14 36° WSW 02:13:04 34° SW
CZ-4C R/B 3.4 02:11:18 25° SE 02:12:29 27° ESE 02:17:36 10° ENE
Cosmos 405 3.4 02:12:37 50° ESE 02:12:41 50° E 02:16:09 10° NNE
Cosmos 2112 Rocket 4.4 02:10:47 29° WSW 02:13:25 61° NW 02:18:46 10° NNE
USA 238 DEB 4.5 02:13:48 30° SSE 02:16:00 37° SE 02:22:20 10° ENE
USA 238 4.5 02:13:55 30° SSE 02:16:06 37° SE 02:22:26 10° ENE
Lacrosse 4 Rocket 2.2 02:13:30 22° W 02:16:10 53° NNW 02:20:39 10° NE
Cosmos 2180 Rocket 4.5 02:14:38 37° SSW 02:17:18 76° WNW 02:23:32 10° NNE
CZ-4B R/B 3.6 02:19:10 17° W 02:19:10 17° W 02:21:33 10° NW
Cosmos 1680 Rocket 4.3 02:24:53 22° WSW 02:28:05 48° NW 02:33:16 10° NNE
Cosmos 1867 4.4 02:27:07 32° SSE 02:28:18 36° SE 02:33:17 10° ENE
CZ-2C R/B 3.6 02:27:20 35° SW 02:28:23 39° W 02:33:12 10° NNW
COSMOS 2428 3.2 02:24:47 20° WSW 02:28:39 56° NW 02:34:19 10° NE
Cosmos 1340 Rocket 3.3 02:25:32 10° NNW 02:29:32 57° ENE 02:30:54 36° SE
Cosmos 2278 Rocket 4.0 02:27:36 10° WNW 02:30:40 15° W 02:31:21 15° WSW
NOSS 0 Rocket 3.9 02:27:50 34° SW 02:30:44 88° SE 02:36:59 10° NE
USA 81 4.4 02:29:48 37° SW 02:31:41 57° WNW 02:36:56 10° N
Cosmos 1908 4.0 02:31:16 37° SE 02:32:04 42° E 02:35:48 10° NNE
ATLAS CENTAUR R/B 2.0 02:29:33 10° WNW 02:33:34 42° WSW 02:33:34 42° WSW
SL-16 R/B 3.7 02:28:58 10° ESE 02:34:43 42° NE 02:40:32 10° NNW
Meteor 1-16 Rocket 4.4 02:36:19 35° SW 02:38:33 63° WNW 02:43:57 10° NNE
Cosmos 1110 Rocket 3.9 02:34:17 10° NW 02:39:31 81° WSW 02:42:01 32° SSE
Cosmos 1726 4.3 02:40:18 15° ESE 02:41:54 19° E 02:44:36 10° NE
Cosmos 292 Rocket 4.1 02:40:09 33° WSW 02:42:06 59° NW 02:46:53 10° NNE
Cosmos 192 4.3 02:41:09 44° SSW 02:42:43 78° ESE 02:47:43 10° NE
CZ-2C R/B 2.9 02:38:25 10° NNE 02:43:54 65° WNW 02:46:22 33° SW
Cosmos 1328 Rocket 3.5 02:46:52 48° S 02:48:00 79° ESE 02:52:21 10° NNE
Aureole 2 Rocket 2.9 02:48:49 51° S 02:49:46 71° ESE 02:54:11 10° NE
PSLV R/B 4.2 02:48:38 10° NNE 02:53:22 56° E 02:55:16 34° SSE
Meteor 1-4 Rocket 3.8 02:53:30 26° ESE 02:54:22 30° E 02:57:31 10° NNE
Meteor 2-1 Rocket 4.4 02:52:56 33° SW 02:55:21 61° WNW 03:00:59 10° NNE
USA 161 3.5 02:55:39 17° E 02:56:13 18° ENE 02:57:56 10° NNE
SL-16 R/B 4.1 02:52:11 10° WNW 02:57:08 29° N 03:02:05 10° NE
H-2A R/B 3.9 02:56:28 10° N 03:00:03 29° NW 03:01:37 22° W
COSMOS 2455 2.9 02:56:50 28° SW 03:00:15 83° NW 03:06:21 10° NE
Resurs 1-4 Rocket 4.4 02:57:06 10° NE 03:00:32 17° E 03:03:57 10° ESE
ATLAS 3B R/B 2.8 03:00:06 26° SW 03:04:46 79° SE 03:11:59 10° ENE
Cosmos 1626 3.4 03:04:31 10° NNW 03:07:45 27° W 03:07:48 27° W
Cosmos 2360 Rocket 3.8 03:03:22 10° W 03:08:29 33° NNW 03:13:38 10° NE
GEOS 3 Rocket 4.2 03:04:02 10° ENE 03:09:05 57° NNW 03:14:06 10° W
Cosmos 1300 3.8 03:07:37 25° SE 03:09:10 37° E 03:12:45 10° NNE
Cosmos 1980 Rocket 4.3 03:04:47 10° NW 03:09:43 28° N 03:14:38 10° ENE
Meteor 2-2 Rocket 4.4 03:07:05 30° S 03:10:09 75° ESE 03:15:59 10° NNE
SL-08 R/B 3.2 03:10:39 33° S 03:12:47 77° WSW 03:17:36 10° NNW
Cosmos 2369 Rocket 2.3 03:07:34 10° NW 03:13:01 53° WSW 03:15:39 29° S
Meteor 2-3 Rocket 3.8 03:08:29 10° NNW 03:14:18 86° ENE 03:18:33 19° SSE
Cosmos 1869 Rocket 3.5 03:11:56 10° NNW 03:16:24 83° WSW 03:18:22 33° S
Helios 1A Rocket 4.1 03:13:43 10° N 03:17:23 33° WNW 03:18:52 25° W
Cosmos 1515 Rocket 3.5 03:15:57 41° SSW 03:17:24 76° WNW 03:21:48 10° NNE
Coronas F rocket 1.3 03:17:35 10° N 03:20:17 73° ENE 03:20:17 73° ENE
Cosmos 2228 Rocket 3.5 03:20:33 34° SW 03:22:14 52° WNW 03:26:43 10° N
Cosmos 2221 4.0 03:22:00 20° W 03:23:50 27° WNW 03:27:38 10° N
Cosmos 1943 Rocket 2.1 03:18:26 10° NW 03:24:09 78° SW 03:29:48 10° SSE
Cosmos 1184 Rocket 4.2 03:23:10 10° N 03:26:28 40° ENE 03:29:27 12° SE
Cosmos 2219 Rocket 3.0 03:22:22 16° WSW 03:26:38 46° NNW 03:32:06 10° NE
Cosmos 2285 Rocket 4.4 03:21:02 10° NNW 03:27:30 69° NE 03:33:54 10° SE
Cosmos 1302 Rocket 4.0 03:24:19 10° NW 03:29:33 65° WSW 03:33:08 20° SSE
ERS-2 4.3 03:29:13 10° NE 03:32:11 22° E 03:34:55 11° SE
Cosmos 1932 4.4 03:28:40 26° SW 03:32:30 86° SSE 03:38:57 10° ENE
Cosmos 1048 Rocket 4.0 03:31:04 30° SSW 03:33:47 82° ESE 03:39:09 10° NNE
ERBS 3.4 03:37:45 31° SSE 03:37:51 31° SSE 03:41:01 10° E
Cosmos 1437 Rocket 4.1 03:36:54 23° W 03:38:31 31° WNW 03:42:15 10° N
Cosmos 1271 Rocket 2.9 03:37:59 31° S 03:39:47 70° ESE 03:43:48 10° NNE
Cosmos 1825 4.0 03:40:06 10° N 03:43:34 31° ENE 03:47:00 10° SE
Cosmos 2322 Rocket 4.2 03:38:55 10° NW 03:43:44 28° N 03:48:34 10° ENE
SeaSat 1 2.8 03:40:14 10° SE 03:45:09 69° NE 03:50:05 10° NW
SL-16 R/B 2.4 03:43:35 24° WSW 03:47:06 69° NW 03:52:50 10° NE
Cosmos 1656 Rocket 3.6 03:43:38 10° NW 03:49:08 89° NE 03:54:34 10° SE
Cosmos 2237 Rocket 3.0 03:45:07 16° WSW 03:49:32 46° NNW 03:55:02 10° NE
ARIANE 5 R/B 3.7 03:45:45 10° NNE 03:50:42 40° E 03:55:33 10° SSE
Cosmos 158 Rocket 4.0 03:48:23 26° SSW 03:51:10 72° ESE 03:56:06 10° NE
Cosmos 1733 Rocket 3.2 03:47:08 10° NNW 03:51:32 75° ENE 03:55:49 11° SSE
Cosmos 1356 Rocket 3.9 03:51:35 10° NNW 03:55:24 39° W 03:56:38 31° SW
Lacrosse 4 Rocket 3.3 03:51:41 10° WNW 03:55:43 31° N 03:59:48 10° NE
S3M 4.0 03:51:38 23° SSW 03:55:48 78° WNW 04:02:14 10° NNE
Cosmos 2333 Rocket 3.2 03:51:34 13° W 03:56:29 43° NNW 04:02:00 10° NE
Cosmos 1151 Rocket 3.3 03:54:45 29° SW 03:56:47 54° WNW 04:01:07 10° N
IRS-1C 4.3 03:52:47 10° NNE 03:58:09 68° ESE 04:02:08 18° S
CZ-4C R/B 2.4 03:56:29 24° SW 04:00:08 74° SE 04:06:44 10° ENE
Cosmos 1269 Rocket 4.2 03:59:42 24° SW 04:02:56 64° NW 04:08:13 10° NNE
ATLAS 5 CENTAUR R/B 3.5 04:02:05 13° S 04:05:29 26° ESE 04:09:52 10° ENE
Cosmos 1340 Rocket 4.1 04:02:30 10° NW 04:05:45 24° W 04:06:31 23° WSW
USA 238 DEB 3.8 04:01:14 20° SW 04:06:24 84° SSE 04:13:29 10° ENE
USA 238 3.8 04:01:21 20° SW 04:06:30 83° SSE 04:13:35 10° ENE
Cosmos 1707 Rocket 3.6 04:04:06 23° SSW 04:06:56 89° E 04:11:27 10° NNE
Cosmos 1908 4.4 04:06:30 22° WSW 04:08:08 31° WNW 04:11:41 10° N
Cosmos 1709 Rocket 4.0 04:02:35 10° NNW 04:08:57 70° W 04:15:03 11° S
ADEOS 3.8 04:05:32 10° NNE 04:10:47 69° ESE 04:15:04 16° S
Iridium 2 3.6 04:07:06 10° N 04:10:56 77° W 04:13:35 19° S
Cosmos 1867 3.6 04:07:46 21° WSW 04:11:35 85° NNW 04:17:07 10° ENE
Cosmos 1553 Rocket 4.1 04:09:14 21° SSW 04:13:25 64° WNW 04:19:29 10° N
COSMOS 2428 4.3 04:09:01 10° WNW 04:14:03 30° NNW 04:19:06 10° NE
BREEZE-M DEB (TANK) 3.9 04:12:32 22° SSW 04:14:17 31° SSE 04:19:22 10° ESE
IRS-P3 4.2 04:10:03 10° NNE 04:15:23 69° WNW 04:19:04 20° SW
Cosmos 1607 3.9 04:11:29 19° WSW 04:16:08 84° NNW 04:22:21 10° ENE
Cosmos 1726 2.2 04:15:00 27° SSW 04:16:55 65° WNW 04:20:38 10° N
Cosmos 2292 Rocket 2.9 04:14:34 10° NNW 04:17:28 49° W 04:18:50 27° SSW
CZ-2D R/B 2.9 04:12:50 10° NNE 04:18:00 49° E 04:23:04 10° S
SL-16 R/B 2.6 04:12:05 10° S 04:18:13 63° WSW 04:24:26 10° NNW
NOSS 3-2 (A) 3.8 04:15:03 20° SW 04:19:35 64° SE 04:26:33 10° ENE
Cosmos 1892 3.1 04:16:03 10° NNW 04:19:45 45° W 04:21:50 22° SSW
Cosmos 1992 Rocket 3.9 04:15:47 10° NW 04:21:01 70° WSW 04:26:13 10° SSE
CZ-2C R/B 4.5 04:19:17 10° N 04:23:23 22° NW 04:27:31 10° W
Cosmos 1908 Rocket 3.8 04:18:58 10° NNW 04:23:25 74° ENE 04:27:47 10° SSE
Aureole 2 Rocket 4.3 04:22:52 14° W 04:25:55 31° NW 04:29:53 10° NNE
USA 161 2.2 04:26:44 25° W 04:26:44 25° W 04:28:29 10° NW
IRAS Rocket 4.4 04:21:12 10° NNE 04:26:53 79° ESE 04:31:51 14° SSW
CENTAUR R/B 4.0 04:22:05 10° S 04:27:33 30° ESE 04:33:34 10° ENE
UNKNOWN OBJECT B 4.0 04:25:16 10° NNE 04:28:45 37° E 04:32:15 10° SSE
Meteor 1-4 Rocket 3.4 04:27:52 22° WSW 04:29:33 35° WNW 04:32:51 10° N
Cosmos 1603 3.8 04:25:58 19° SW 04:30:13 74° NW 04:36:01 10° NE
Cosmos 1697 Rocket 4.0 04:25:26 10° NW 04:30:51 44° NNE 04:36:14 10° ESE
MTI 3.8 04:27:38 10° SSE 04:31:00 89° ENE 04:34:23 10° NNW
CZ-2C R/B 4.0 04:27:14 10° SSE 04:31:39 70° ENE 04:36:07 10° NNW
Cosmos 2074 Rocket 4.0 04:26:20 10° NNW 04:32:36 90° SW 04:38:51 10° S
Meteor 1-27 4.2 04:29:14 17° SSW 04:33:37 73° WNW 04:39:17 10° NNE
BREEZE-M DEB (TANK) 4.0 04:30:19 17° SW 04:33:48 27° S 04:36:41 10° ESE
Cosmos 2327 Rocket 4.5 04:28:19 10° NNW 04:34:27 90° W 04:40:38 10° S
EO 1 Del DPAF 3.3 04:30:58 10° S 04:34:50 63° WSW 04:38:45 10° NNW
CBERS-1 4.2 04:29:48 10° NNE 04:34:53 63° WNW 04:38:49 17° SW
Cosmos 1862 3.3 04:31:15 10° NNW 04:35:16 88° ENE 04:39:16 10° SSE
NOSS 3-2 (C) 3.8 04:33:34 17° SW 04:38:38 67° SE 04:45:41 10° ENE
Okean O Rocket 3.4 04:36:01 10° NNE 04:40:01 31° E 04:43:59 10° SSE
Cosmos 2184 Rocket 4.0 04:33:49 10° NNW 04:40:15 85° W 04:46:38 10° S
Resurs 1-4 Rocket 2.4 04:36:05 10° NNE 04:41:23 70° ESE 04:46:39 10° S
ERS-1 4.4 04:36:57 10° NNE 04:41:58 85° WNW 04:46:30 13° SSW
Cosmos 2251 Rocket 3.5 04:38:15 17° SW 04:42:22 80° WNW 04:47:40 10° NNE
SL-16 R/B 4.1 04:37:46 10° NW 04:42:49 31° NNE 04:47:52 10° ENE
NPP 4.0 04:38:20 10° NNE 04:43:36 54° WNW 04:47:53 15° SW
Cosmos 1300 3.6 04:42:40 18° WSW 04:44:58 34° WNW 04:48:32 10° N
Cosmos 2278 3.9 04:39:19 10° NW 04:45:05 79° NE 04:50:50 10° SE
Thor Agena Rocket 4.0 04:40:45 10° SSE 04:45:56 69° ENE 04:51:12 10° NNW
GEOS 3 Rocket 4.4 04:41:48 10° E 04:46:48 53° N 04:51:48 10° WNW
COSMOS 2455 3.7 04:41:01 10° W 04:46:51 47° NNW 04:52:42 10° ENE
Cosmos 1869 3.4 04:45:14 10° S 04:49:12 74° E 04:53:11 10° NNE
Coronas F rocket 3.8 04:51:08 10° WNW 04:51:12 10° W 04:51:12 10° W
Cosmos 1408 2.6 04:48:03 10° NNW 04:51:48 71° W 04:55:33 10° S
Cosmos 2360 Rocket 4.1 04:49:09 10° NW 04:54:03 28° N 04:58:56 10° ENE
Pageos (A) 2.9 04:52:38 10° NNW 04:54:48 49° W 04:56:14 16° S
Cosmos 1980 Rocket 3.5 04:49:34 10° NW 04:55:04 44° NNE 05:00:31 10° ESE
Sich 1 Rocket 3.7 04:51:21 10° NNW 04:55:40 55° W 04:59:59 10° S
ATLAS 3B R/B 3.1 04:48:23 10° W 04:55:52 68° N 05:02:55 10° ENE
Cosmos 2369 Rocket 3.8 04:53:09 10° WNW 04:55:52 14° W 04:57:22 13° WSW
Cosmos 1943 3.2 04:51:43 14° SW 04:56:38 88° NW 05:02:20 10° NE
UNK 4.4 04:53:04 11° SSW 04:57:02 34° W 05:01:15 10° NNW
Cosmos 494 Rocket 4.0 04:52:36 14° SW 04:57:10 79° NW 05:02:27 10° NNE
Cosmos 1455 2.2 04:53:39 12° SSW 04:57:15 76° WNW 05:01:11 10° NNE
AQUA 4.4 04:54:30 10° N 04:59:02 43° WNW 05:02:57 13° SW
Cosmos 2369 3.8 04:54:25 10° NW 05:00:13 87° NE 05:05:59 10° SE
Cosmos 1184 Rocket 4.0 04:57:39 10° NW 05:00:34 26° W 05:02:48 14° SW
Cosmos 2341 Rocket 4.4 04:59:09 10° NNW 05:05:28 73° ENE 05:11:48 10° SSE
ERS-2 2.3 05:02:36 10° NNE 05:06:19 60° WNW 05:09:45 12° SW
CZ-4B R/B 4.3 05:01:19 10° NNE 05:06:23 42° E 05:11:24 10° S
Cosmos 1943 Rocket 3.3 05:02:52 10° NW 05:07:09 22° WSW 05:11:25 10° SSW
Cosmos 1656 4.0 05:03:17 10° NW 05:08:46 69° NE 05:14:12 10° SE
Meteor 2-11 Rocket 4.5 05:02:52 10° SSW 05:08:57 72° WNW 05:15:04 10° NNE
COSMOS 2406 4.2 05:03:31 10° S 05:08:58 45° ESE 05:14:25 10° NE
Cosmos 1933 3.8 05:05:11 10° S 05:09:16 64° E 05:13:20 10° NNE
Cosmos 2219 Rocket 3.9 05:07:02 10° WNW 05:11:54 28° N 05:16:46 10° NE
MOZ.5/SAFIR/RUBIN 5/SL-8 3.8 05:08:07 10° S 05:12:43 59° WSW 05:17:22 10° NNW
CZ-4B R/B 4.2 05:09:48 10° NNE 05:13:13 35° E 05:16:42 10° SSE
Cosmos 2285 Rocket 4.5 05:08:09 10° NW 05:14:04 40° WSW 05:19:56 10° S
ERBS 2.7 05:11:10 12° WSW 05:14:18 51° S 05:17:45 10° E
Cosmos 1271 Rocket 4.4 05:13:13 11° WSW 05:16:17 23° NW 05:19:32 10° N
Cosmos 1862 Rocket 3.6 05:12:02 10° SSW 05:16:25 70° WNW 05:20:53 10° NNE
Okean 1-7 4.2 05:13:00 10° SSE 05:17:08 44° E 05:21:20 10° NNE
Cosmos 1825 2.7 05:15:43 10° NNW 05:19:18 40° W 05:22:52 10° SSW
SeaSat 1 3.0 05:18:29 10° S 05:23:01 35° WSW 05:27:35 10° NW
Cosmos 2315 Rocket 4.3 05:18:01 10° SW 05:24:09 55° WNW 05:30:24 10° N
PSLV R/B 4.1 05:22:06 10° NNE 05:25:51 65° ESE 05:29:39 10° S
Cosmos 2242 Rocket 4.4 05:22:32 10° SW 05:26:49 38° WNW 05:31:06 10° N
IRS-1D 3.8 05:21:47 10° NNE 05:26:52 57° WNW 05:32:02 10° SW
Okean 2 Rocket 3.2 05:23:36 10° NNW 05:28:04 62° W 05:32:31 10° S
Cosmos 1733 Rocket 4.4 05:25:36 10° NW 05:28:54 21° W 05:32:13 10° SW
Cosmos 2322 Rocket 3.7 05:23:53 10° NW 05:29:12 39° NNE 05:34:33 10° E
ARIANE 5 R/B 2.9 05:24:55 10° NNE 05:30:01 53° WNW 05:35:06 10° SW
SL-16 R/B 3.5 05:27:01 10° W 05:32:09 33° NNW 05:37:18 10° NE
Cosmos 2237 Rocket 3.8 05:29:57 10° WNW 05:34:53 29° N 05:39:49 10° NE
Lacrosse 4 Rocket 3.2 05:31:17 10° NW 05:35:28 35° NNE 05:39:40 10° E
USA 234 4.2 05:29:44 10° ENE 05:35:48 38° SE 05:41:50 10° SSW
Cosmos 389 Rocket 2.8 05:35:30 10° SW 05:38:56 51° WNW 05:42:28 10° N
Cosmos 1782 Rocket 4.0 05:36:56 10° NNW 05:41:03 41° W 05:45:07 10° SSW
CZ-2D R/B 3.7 05:37:18 10° NNE 05:41:44 69° WNW 05:46:03 10° SSW
Cosmos 2333 Rocket 3.9 05:37:09 10° WNW 05:42:09 29° N 05:47:09 10° NE
MOS 1-B 4.4 05:39:03 10° NNE 05:44:50 70° WNW 05:50:35 10° SSW
